Location: *
(40.4000°N, 15.1200°E)
Time: 05:44:03
(UTC+00:00)

ATLAS 5 CENTAUR R/B - Pass Details

Date: 09 April 2020
Orbit: 543 x 1116 km, 63.4° (Epoch: 01 May)

Event Time Altitude Azimuth Distance (km) Brightness Sun altitude
Rises 18:13:46 0° 209° (SSW) 2,694 5.0 -8.4°
Reaches altitude 10° 18:15:53 10° 208° (SSW) 1,824 4.1 -8.8°
Maximum altitude 18:19:55 77° 123° (ESE) 601 1.4 -9.5°
Drops below altitude 10° 18:24:23 10° 37° (NE) 2,018 4.0 -10.3°
Sets 18:26:50 0° 36° (NE) 3,012 4.9 -10.7°
